Regional Weather Roundup
Issued by NWS

Home | Current Version | Previous Version | Graphics & Text | Print | Product List | Glossary On
Versions: 1 2 3 4 5 6 7 8 9 10 11 12 13 14 15 16 17 18 19 20 21 22 23 24 25 26 27 28 29 30 31 32 33 34 35 36 37 38 39 40 41 42 43 44 45 46 47 48 49 50
000
ASUS43 KDMX 270003
RWRIA

WEATHER ROUNDUP FOR IOWA
NATIONAL WEATHER SERVICE DES MOINES IA
700 PM CDT TUE JUL 26 2016

NOTE: "FAIR" INDICATES FEW OR NO CLOUDS BELOW 12,000 FEET WITH NO
SIGNIFICANT WEATHER AND/OR OBSTRUCTIONS TO VISIBILITY.

* - THESE STATIONS ARE NOT NWS STATIONS...THUS NOT UNDER NWS
QUALITY CONTROL.  THEY ALSO DO NOT REPORT WEATHER SUCH
AS PRECIPITATION OR FOG.

IAZ001>003-012>014-020>022-031>034-043>046-270100-
   NORTHWEST IOWA

CITY           SKY/WX    TMP DP  RH WIND       PRES   REMARKS
CARROLL *      SUNNY     82  68  61 SE8       30.01F HX  85
CHEROKEE *     SUNNY     83  66  55 SE6       30.01S HX  85
DENISON *      SUNNY     82  68  61 SE6       29.99F HX  85
LE MARS *      SUNNY     84  66  54 SE7       30.00S HX  86
SHELDON *      SUNNY     81  70  69 MISG      29.99F HX  84
SIOUX CITY     SUNNY     86  65  49 SE10      29.99R HX  88
6HR MIN TEMP:  86; 6HR MAX TEMP:  89;

SPENCER        SUNNY     83  68  60 SE10      30.01F HX  86
6HR MIN TEMP:  83; 6HR MAX TEMP:  86;

STORM LAKE *   SUNNY     81  68  65 SE6       30.03F HX  83
$$

IAZ055>058-069>071-079>083-090>094-270100-
   SOUTHWEST IOWA

CITY           SKY/WX    TMP DP  RH WIND       PRES   REMARKS
ATLANTIC *     MOSUNNY   82  66  57 E7        30.00F HX  85
CLARINDA *       N/A     84  68  58 MISG      30.03S HX  87
COUNCIL BLFS * SUNNY     82  68  61 E7        30.01F HX  85
CRESTON *      SUNNY     82  68  61 E5        30.04F HX  85
HARLAN  *      SUNNY     82  68  61 SE6       30.04F HX  85
LAMONI         SUNNY     82  67  60 VRB5      30.02S HX  84
6HR MIN TEMP:  82; 6HR MAX TEMP:  85;

RED OAK *      SUNNY     82  68  61 E6        30.01F HX  85
SHENANDOAH *   SUNNY     84  68  58 E8        30.01S HX  87
$$

IAZ047>049-059>061-072>074-084-270100-
   CENTRAL IOWA

CITY           SKY/WX    TMP DP  RH WIND       PRES   REMARKS
AMES           SUNNY     82  68  62 E7        30.02F HX  85
6HR MIN TEMP:  82; 6HR MAX TEMP:  86;

ANKENY *         N/A    N/A N/A N/A MISG        N/A
BOONE *        SUNNY     82  68  61 E7        30.02F HX  85
CHARITON *       N/A    N/A N/A N/A MISG        N/A
DES MOINES     MOSUNNY   84  65  52 E8        30.01F HX  86
6HR MIN TEMP:  83; 6HR MAX TEMP:  87;

GRINNELL*      SUNNY     81  64  57 NE3       30.04F HX  82
KNOXVILLE *    SUNNY     82  63  51 NE7       30.02S HX  83
MARSHALLTOWN   SUNNY     83  67  58 E5        30.03S HX  85
6HR MIN TEMP:  82; 6HR MAX TEMP:  86;

NEWTON *       MOSUNNY   82  64  54 E6        30.03S HX  84
PELLA *        MOSUNNY   82  64  54 CALM      30.04S HX  83
PERRY *          N/A     83  67  59 E6        30.02F HX  85
$$

IAZ004>006-015-016-023>025-035-036-270100-
   NORTH CENTRAL IOWA

CITY           SKY/WX    TMP DP  RH WIND       PRES   REMARKS
ALGONA *       SUNNY     82  70  65 S6        30.01F HX  86
ESTHERVILLE    SUNNY     81  70  69 S6        30.01F HX  84
6HR MIN TEMP:  81; 6HR MAX TEMP:  84;

FORT DODGE *   SUNNY     81  68  65 E6        30.03F HX  83
MASON CITY     SUNNY     82  68  62 S6        30.04F HX  85
6HR MIN TEMP:  81; 6HR MAX TEMP:  86;

FOREST CITY *    N/A     82  64  54 S5        30.02F HX  84
IOWA FALLS *     N/A     84  65  54 E3        30.04F HX  85
$$

IAZ007>011-017>019-026>030-037>042-050>054-066-270100-
   NORTHEAST IOWA

CITY           SKY/WX    TMP DP  RH WIND       PRES   REMARKS
CEDAR RAPIDS   SUNNY     82  69  64 E5        30.02S HX  85
6HR MIN TEMP:  80; 6HR MAX TEMP:  86;

CHARLES CITY * SUNNY     81  72  74 CALM      30.04F HX  84
CLINTON *      SUNNY     83  68  60 NE6       30.02F HX  86
DECORAH *      SUNNY     82  68  61 CALM      30.02S HX  85
DUBUQUE        SUNNY     83  62  49 E3        30.04S HX  84
6HR MIN TEMP:  80; 6HR MAX TEMP:  86;

MONTICELLO *   SUNNY     84  66  54 E3        30.02F HX  86
OELWEIN *      SUNNY     82  66  57 CALM      30.04F HX  85
WATERLOO       SUNNY     83  64  52 CALM      30.01F HX  84
6HR MIN TEMP:  82; 6HR MAX TEMP:  86;

$$

IAZ064-065-067-068-078-270100-
   EAST CENTRAL IOWA

CITY           SKY/WX    TMP DP  RH WIND       PRES   REMARKS
DAVENPORT      SUNNY     82  66  58 NE6       30.02S HX  84
6HR MIN TEMP:  82; 6HR MAX TEMP:  85;

IOWA CITY      MOSUNNY   83  65  54 E6        30.03S HX  85
6HR MIN TEMP:  81; 6HR MAX TEMP:  86;

MT. PLEASANT * SUNNY     84  68  58 NE3       30.02R HX  88
MUSCATINE *    SUNNY     84  66  54 NE5       30.01S HX  86
QUAD CITIES    SUNNY     84  64  50 E9        30.00S HX  85
6HR MIN TEMP:  84; 6HR MAX TEMP:  88;

$$

IAZ062-063-075>077-085>089-095>099-270100-
   SOUTHEAST IOWA

CITY           SKY/WX    TMP DP  RH WIND       PRES   REMARKS
BURLINGTON     SUNNY     83  68  60 NE3       30.01S HX  86
6HR MIN TEMP:  83; 6HR MAX TEMP:  85;

FAIRFIELD *    SUNNY     82  66  57 E6        30.02S HX  85
KEOKUK *       SUNNY     82  66  57 CALM      30.00S HX  85
CENTERVILLE *    N/A     81  64  57 CALM      30.04S HX  82
OTTUMWA        SUNNY     82  64  54 E7        30.01R HX  83
6HR MIN TEMP:  81; 6HR MAX TEMP:  85;

WASHINGTON *   MOSUNNY   81  70  69 CALM      30.04R HX  84
$$

ABBREVIATIONS USED IN REMARKS
   TC - TEMPERATURES IN CELSIUS
  WCI - WIND CHILL INDEX
   HX - HEAT INDEX
  VSB - VISIBILITY
$$





USA.gov is the U.S. government's official web portal to all federal, state and local government web resources and services.